Columbus AFB, MS

5:38 PM CST on December 17, 2017 (GMT -0600)
Columbus Air Force Base

Weather History for KCBM - April, 2013

Change the Weather History Date:

Friday, April 12, 2013

  Actual Average Record
Temperature  
Mean Temperature 55 °F -  
Max Temperature 69 °F 71 °F 82 °F (2017)
Min Temperature 41 °F 49 °F 37 °F (2012)
Degree Days  
Heating Degree Days 10    
Growing Degree Days 5 (Base 50)    
Moisture  
Dew Point 44 °F    
Average Humidity 76    
Maximum Humidity 100    
Minimum Humidity 34    
Precipitation  
Precipitation 0.00 in - - ()
Sea Level Pressure  
Sea Level Pressure 29.91 in    
Wind  
Wind Speed 8 mph (NW)    
Max Wind Speed 14 mph    
Max Gust Speed 20 mph    
Visibility 10 miles    
Events      
Averages and records for this station are not official NWS values.
T = Trace of Precipitation, MM = Missing Value Source: NWS Daily Summary

Daily Weather History Graph

Daily Weather History Graph

Search for Another Location

Airport or City:

Trip Planner

Search our weather history database for the weather conditions in past years. The results will help you decide how hot, cold, wet, or windy it might be!

Date:

Astronomy

Apr. 12, 2013 Rise Set
Actual Time 6:26 AM CDT 7:22 PM CDT
Civil Twilight 6:01 AM CDT 7:48 PM CDT
Nautical Twilight 5:31 AM CDT 8:18 PM CDT
Astronomical Twilight 5:00 AM CDT 8:49 PM CDT
Moon 7:42 AM CDT (4/12) 9:46 PM CDT (4/12)
Length of Visible Light 13h 47m
Length of Day
12h 56m
Waxing Crescent, 5% of the Moon is Illuminated
Apr 12
Waxing Crescent
Apr 18
First Quarter
Apr 25
Full
May 2
Last Quarter
May 9
New

Hourly Weather History & Observations

Time (CDT) Temp. Windchill Dew Point Humidity Pressure Visibility Wind Dir Wind Speed Gust Speed Precip Events Conditions
12:03 AM 50.0 °F - 48.2 °F 94% 29.81 in 10.0 mi NW 13.8 mph - N/A   Overcast
12:08 AM 50.0 °F - 46.4 °F 87% 29.81 in 10.0 mi NNW 10.4 mph - N/A   Overcast
12:23 AM 50.0 °F - 46.4 °F 87% 29.83 in 10.0 mi NW 10.4 mph - N/A   Scattered Clouds
12:28 AM 50.0 °F - 44.6 °F 82% 29.84 in 10.0 mi NW 10.4 mph - N/A   Mostly Cloudy
12:33 AM 50.0 °F - 44.6 °F 82% 29.84 in 10.0 mi NW 12.7 mph - N/A   Mostly Cloudy
12:38 AM 50.0 °F - 44.6 °F 82% 29.84 in 10.0 mi NW 9.2 mph - N/A   Scattered Clouds
12:58 AM 48.9 °F - 45.7 °F 89% 29.85 in 10.0 mi Calm Calm - N/A   Scattered Clouds
1:08 AM 50.0 °F - 46.4 °F 87% 29.84 in 10.0 mi NW 3.5 mph - N/A   Mostly Cloudy
1:25 AM 48.2 °F - 46.4 °F 93% 29.84 in 10.0 mi WNW 6.9 mph - N/A   Overcast
1:35 AM 48.2 °F - 46.4 °F 93% 29.83 in 10.0 mi NNW 6.9 mph - N/A   Mostly Cloudy
1:50 AM 48.2 °F - 44.6 °F 87% 29.84 in 10.0 mi NW 12.7 mph 18.4 mph N/A   Scattered Clouds
1:58 AM 47.8 °F - 43.7 °F 86% 29.86 in 10.0 mi NW 12.7 mph - N/A   Partly Cloudy
2:58 AM 46.2 °F - 43.3 °F 90% 29.87 in 10.0 mi Calm Calm - N/A   Clear
3:58 AM 43.5 °F - 42.4 °F 96% 29.88 in 10.0 mi Calm Calm - N/A   Clear
4:58 AM 42.1 °F - 41.9 °F 99% 29.90 in 10.0 mi Calm Calm - N/A   Clear
5:58 AM 41.5 °F - 41.4 °F 99% 29.92 in 10.0 mi Calm Calm - N/A   Clear
6:58 AM 43.0 °F - 42.8 °F 99% 29.94 in 10.0 mi Calm Calm - N/A   Clear
7:56 AM 46.4 °F - 46.4 °F 100% 29.96 in 10.0 mi NW 2.3 mph - N/A   Clear
8:14 AM 46.4 °F 45.2 °F 46.4 °F 100% 29.96 in 10.0 mi WNW 3.5 mph - N/A   Partly Cloudy
8:58 AM 50.7 °F - 46.0 °F 84% 29.99 in 10.0 mi NW 4.6 mph - N/A   Clear
9:58 AM 53.1 °F - 43.9 °F 71% 29.99 in 10.0 mi North 5.8 mph - N/A   Partly Cloudy
10:58 AM 57.0 °F - 43.9 °F 61% 30.00 in 10.0 mi Variable 3.5 mph - N/A   Clear
11:58 AM 59.9 °F - 43.9 °F 55% 29.98 in 10.0 mi Variable 5.8 mph - N/A   Clear
12:58 PM 62.8 °F - 42.4 °F 47% 29.98 in 10.0 mi West 8.1 mph - N/A   Clear
1:58 PM 65.3 °F - 41.2 °F 41% 29.97 in 10.0 mi West 8.1 mph - N/A   Clear
2:58 PM 66.9 °F - 42.6 °F 41% 29.95 in 10.0 mi West 9.2 mph 18.4 mph N/A   Clear
3:58 PM 68.9 °F - 40.6 °F 36% 29.94 in 10.0 mi NW 10.4 mph - N/A   Clear
4:58 PM 69.1 °F - 39.6 °F 34% 29.93 in 10.0 mi WNW 9.2 mph 19.6 mph N/A   Clear
5:58 PM 68.4 °F - 40.3 °F 36% 29.93 in 10.0 mi WNW 8.1 mph - N/A   Clear
6:58 PM 65.3 °F - 41.7 °F 42% 29.93 in 10.0 mi West 5.8 mph - N/A   Clear
7:58 PM 57.9 °F - 46.4 °F 65% 29.94 in 10.0 mi West 5.8 mph - N/A   Clear
8:58 PM 56.3 °F - 44.6 °F 65% 29.97 in 10.0 mi West 4.6 mph - N/A   Clear
9:58 PM 54.0 °F - 45.5 °F 73% 30.00 in 10.0 mi Calm Calm - N/A   Clear
10:58 PM 51.1 °F - 47.1 °F 86% 30.01 in 10.0 mi ENE 1.2 mph - N/A   Clear
11:58 PM 48.6 °F - 45.9 °F 90% 30.02 in 10.0 mi Calm Calm - N/A   Clear